Change the Weather History Date:

Thursday, December 26, 2013

  Actual Average Record
Temperature  
Mean Temperature 32 °F 39 °F  
Max Temperature 34 °F 45 °F 60 °F (1980)
Min Temperature 30 °F 32 °F 12 °F (1924)
Degree Days  
Heating Degree Days 33 26  
Month to date heating degree days 880 664  
Since 1 July heating degree days 1931 1633  
Cooling Degree Days 0 0  
Month to date cooling degree days 0 0  
Year to date cooling degree days 1057 829  
Moisture  
Dew Point 30 °F    
Average Humidity 95    
Maximum Humidity 100    
Minimum Humidity 89    
Precipitation  
Precipitation 0.01 in 0.11 in 1.66 in (1931)
Month to date precipitation 0.36 2.99  
Year to date precipitation 8.99 17.85  
Snow  
Snow T in 0.10 in - ()
Month to date snowfall 3.4 1.2  
Since 1 July snowfall 3.4 1.4  
Snow Depth 0.00 in    
Sea Level Pressure  
Sea Level Pressure 30.38 in    
Wind  
Wind Speed 1 mph (NNW)    
Max Wind Speed 5 mph    
Max Gust Speed 6 mph    
T = Trace of Precipitation, MM = Missing Value Source: NWS Daily Summary

Daily Weather History Graph

Daily Weather History Graph

Search for Another Location

Airport or City:

Trip Planner

Search our weather history database for the weather conditions in past years. The results will help you decide how hot, cold, wet, or windy it might be!

Date:

Astronomy

Dec. 26, 2013 Rise Set
Actual Time 7:39 AM PST 4:45 PM PST
Civil Twilight 7:07 AM PST 5:17 PM PST
Nautical Twilight 6:32 AM PST 5:52 PM PST
Astronomical Twilight 5:58 AM PST 6:26 PM PST
Moon 1:08 AM PST (12/26) 12:28 PM PST (12/26)
Length of Visible Light 10h 09m
Length of Day
9h 05m
Last Quarter, 37% of the Moon is Illuminated
Dec 26
Last Quarter
Jan 1
New
Jan 7
First Quarter
Jan 15
Full
Jan 23
Last Quarter

Hourly Weather History & Observations

Time (PST) Temp. Windchill Dew Point Humidity Pressure Visibility Wind Dir Wind Speed Gust Speed Precip Events Conditions
12:53 AM 32.0 °F - 30.9 °F 96% 30.45 in 0.2 mi Calm Calm - N/A Fog Fog
1:41 AM 32.0 °F - 30.9 °F 96% 30.40 in 0.2 mi Calm Calm - N/A Fog Fog
1:53 AM 32.0 °F - 30.9 °F 96% 30.44 in 0.2 mi Calm Calm - N/A Fog Fog
2:31 AM 32.0 °F - 30.9 °F 96% 30.41 in 0.2 mi Calm Calm - N/A Fog Fog
2:53 AM 32.0 °F - 30.9 °F 96% 30.44 in 0.2 mi Calm Calm - N/A Fog Fog
3:06 AM 32.0 °F 27.5 °F 30.0 °F 92% 30.41 in 0.2 mi WNW 4.6 mph - N/A Fog Fog
3:29 AM 32.0 °F 28.7 °F 30.9 °F 96% 30.40 in 0.2 mi North 3.5 mph - N/A Fog Fog
3:53 AM 30.9 °F 26.2 °F 30.0 °F 96% 30.43 in 0.2 mi North 4.6 mph - N/A Fog Light Freezing Fog
4:53 AM 30.9 °F 27.5 °F 30.0 °F 96% 30.42 in 0.2 mi NE 3.5 mph - N/A Fog Light Freezing Fog
5:45 AM 30.9 °F - 30.0 °F 96% 30.38 in 0.5 mi Calm Calm - N/A Fog Light Freezing Fog
5:53 AM 30.9 °F - 30.0 °F 96% 30.42 in 0.2 mi Calm Calm - N/A Fog Light Freezing Fog
6:26 AM 30.9 °F - 30.0 °F 96% 30.38 in 0.5 mi Calm Calm - N/A Fog Light Freezing Fog
6:53 AM 30.9 °F - 30.0 °F 96% 30.42 in 0.5 mi Calm Calm - N/A Fog Light Freezing Fog
7:31 AM 30.9 °F 27.5 °F 28.9 °F 92% 30.39 in 0.2 mi West 3.5 mph - N/A Fog Light Freezing Fog
7:53 AM 30.0 °F - 30.0 °F 100% 30.43 in 0.2 mi Calm Calm - N/A Fog Light Freezing Fog
8:39 AM 30.0 °F - 28.9 °F 96% 30.40 in 0.2 mi Calm Calm - N/A Fog Light Freezing Fog
8:49 AM 30.2 °F - 28.4 °F 93% 30.40 in 0.2 mi Calm Calm - N/A Fog Light Freezing Fog
8:53 AM 30.0 °F - 28.9 °F 96% 30.44 in 0.2 mi Calm Calm - N/A Fog Light Freezing Fog
9:08 AM 30.0 °F - 28.9 °F 96% 30.40 in 0.2 mi Calm Calm - N/A Fog Light Freezing Fog
9:46 AM 30.9 °F - 28.9 °F 92% 30.41 in 0.8 mi Calm Calm - 0.00 in   Overcast
9:53 AM 30.9 °F - 28.9 °F 92% 30.44 in 0.5 mi Calm Calm - 0.00 in Fog Light Freezing Fog
10:53 AM 30.9 °F - 30.0 °F 96% 30.43 in 0.5 mi Calm Calm - N/A Fog Light Freezing Fog
11:00 AM 30.9 °F - 30.0 °F 96% 30.39 in 0.2 mi Calm Calm - N/A Fog Light Freezing Fog
11:11 AM 30.9 °F 27.5 °F 30.0 °F 96% 30.39 in 0.5 mi NNW 3.5 mph - N/A Fog Light Freezing Fog
11:53 AM 32.0 °F - 30.0 °F 92% 30.41 in 0.5 mi Calm Calm - N/A Fog Fog
12:39 PM 32.0 °F - 30.9 °F 96% 30.35 in 1.0 mi Calm Calm - N/A   Overcast
12:53 PM 32.0 °F - 30.9 °F 96% 30.38 in 1.0 mi Calm Calm - N/A   Overcast
1:53 PM 33.1 °F - 32.0 °F 96% 30.35 in 2.0 mi Calm Calm - N/A   Overcast
2:53 PM 33.1 °F - 32.0 °F 96% 30.33 in 2.5 mi Calm Calm - N/A   Overcast
3:53 PM 34.0 °F - 32.0 °F 92% 30.32 in 1.8 mi Calm Calm - N/A   Overcast
4:53 PM 33.1 °F - 32.0 °F 96% 30.32 in 0.8 mi Calm Calm - N/A   Overcast
5:19 PM 33.1 °F - 32.0 °F 96% 30.28 in 0.2 mi Calm Calm - N/A Fog Fog
5:53 PM 33.1 °F - 30.9 °F 92% 30.32 in 0.2 mi Calm Calm - N/A Fog Fog
6:02 PM 33.1 °F - 30.9 °F 92% 30.28 in 0.2 mi Calm Calm - N/A Fog Fog
6:53 PM 32.0 °F - 30.9 °F 96% 30.32 in 0.2 mi Calm Calm - 0.00 in Fog , Snow Light Snow
7:21 PM 32.0 °F - 30.9 °F 96% 30.29 in 0.2 mi Calm Calm - 0.01 in Fog Fog
7:53 PM 32.0 °F - 30.9 °F 96% 30.33 in 0.2 mi Calm Calm - 0.01 in Fog Fog
8:53 PM 32.0 °F - 30.9 °F 96% 30.33 in 0.2 mi Calm Calm - N/A Fog Fog
9:00 PM 32.0 °F - 30.0 °F 92% 30.29 in 0.2 mi Calm Calm - N/A Fog Fog
9:53 PM 32.0 °F 28.7 °F 30.9 °F 96% 30.32 in 0.2 mi Variable 3.5 mph - N/A Fog Fog
10:10 PM 30.9 °F - 30.0 °F 96% 30.29 in 0.2 mi Calm Calm - N/A Fog Light Freezing Fog
10:53 PM 30.9 °F - 30.0 °F 96% 30.33 in 0.2 mi Calm Calm - N/A Fog Light Freezing Fog
11:53 PM 30.0 °F - 28.9 °F 96% 30.33 in 0.2 mi Calm Calm - N/A Fog Light Freezing Fog